GRBAlpha
1 47959U 21022AD 24226.81439432 .00043583 00000-0 15374-2 0 9996
2 47959 97.4519 125.3855 0010248 296.8201 63.1990 15.29070746186209
Orbicraft-Zorkiy
1 47960U 21022AE 24226.85719416 .00049626 00000-0 16210-2 0 9999
2 47960 97.4563 126.9323 0008824 292.7839 67.2469 15.31547751186974
STECCO
1 47962U 21022AG 24225.05634298 .02305750 48407-2 34578-2 0 9993
2 47962 97.4383 138.6129 0011335 170.1636 189.9869 16.05836115186912
TUBIN
1 48900U 21059X 24226.82432964 .00035903 00000-0 11371-2 0 9997
2 48900 97.6522 13.2537 0006122 239.3813 120.6825 15.32636495173745
LEDSAT
1 49069U 21073D 24228.20269594 .00035164 00000-0 12957-2 0 9991
2 49069 97.4340 299.0244 0018913 77.9666 282.3691 15.27566995165457
CUTE
1 49263U 21088D 24228.14441562 .00038741 00000-0 16575-2 0 9997
2 49263 97.4928 293.8413 0012950 229.4780 130.5329 15.22634772158606
TeikyoSat 4
1 49396U 21102B 24228.36905101 .00004993 00000-0 35681-3 0 9991
2 49396 97.4563 271.3028 0015147 77.1842 283.1076 15.04827846151657
Z-Sat
1 49399U 21102E 24226.83943966 .00011348 00000-0 71343-3 0 9992
2 49399 97.4275 271.5249 0021456 63.1147 297.2272 15.09198611151683
KOSEN 1
1 49402U 21102H 24228.87578750 .00013560 00000-0 77567-3 0 9990
2 49402 97.4205 275.1618 0019135 40.0708 320.1930 15.12621063152166
HO-113
1 50466U 21131B 24226.80896280 .00002827 00000-0 91499-3 0 9990
2 50466 98.5266 311.6119 0003298 326.8046 33.2935 14.39811282138299
IRIS-A
1 51044U 22002BN 24228.58462471 .00039929 00000-0 11788-2 0 9994
2 51044 97.3806 294.9889 0006402 173.3447 186.7882 15.34842710143529
OreSat0
1 52017U 22026K 24228.63135464 .00229187 00000-0 20217-2 0 9990
2 52017 97.4876 246.1217 0004999 26.8858 333.2661 15.67982536134979
Planetum 1
1 52738U 22057G 24228.35371346 .00092471 00000-0 17165-2 0 9996
2 52738 97.5695 356.9170 0005525 286.6934 73.3709 15.48592466123706
Foresail-1
1 52766U 22057AL 24228.76985740 .00041707 00000-0 12149-2 0 9994
2 52766 97.5872 355.8234 0008755 278.4997 81.5254 15.35239101123581
SNUGLITE 2
1 52899U 22065F 24228.64011560 .00004094 00000-0 84079-3 0 9997
2 52899 98.1267 8.6686 0007100 335.1638 24.9220 14.61154607112940
IO-117
1 53106U 22080B 24228.11242500 -.00000003 00000-0 00000-0 0 9994
2 53106 70.1424 172.0499 0007747 94.1050 266.0495 6.42557430 49057
SelfieSat
1 53951U 22057BC 24228.65243867 .00464111 00000-0 26105-2 0 9991
2 53951 97.5635 2.8846 0009310 275.5142 84.5062 15.77926020124086
FO-118
1 54684U 22167C 24226.87260966 .00061438 00000-0 18259-2 0 9994
2 54684 97.6104 13.2492 0009486 299.7086 60.3212 15.34498514 93139
SSS-2B
1 56184U 23054G 24226.85343043 .00079812 00000-0 15815-2 0 9993
2 56184 97.3596 125.5168 0003676 2.1655 357.9610 15.46762597 75032
CIRBE
1 56188U 23054L 24228.63755965 .00225800 00000-0 21479-2 0 9998
2 56188 97.3489 130.4995 0002484 135.4150 224.7311 15.66123376 75549
INSPIRE-Sat 7
1 56211U 23054AK 24228.63110928 .00283225 00000-0 21385-2 0 9990
2 56211 97.3496 132.0655 0003579 165.9106 194.2258 15.71612382 75637
RoseyCubesat 1
1 56212U 23054AL 24226.52574218 .00624925 00000-0 27517-2 0 9992
2 56212 97.3482 131.2838 0005256 158.2772 201.8721 15.82951908 75390
SO-120
1 56992U 23084BU 24226.80184356 .00070253 00000-0 21968-2 0 9994
2 56992 97.5345 346.9655 0011326 183.5284 176.5880 15.32821701 64991
MRC-100
1 56993U 23084BV 24228.30918428 .00076547 00000-0 21586-2 0 9995
2 56993 97.5332 349.1244 0010227 179.8313 180.2936 15.36072353 65278
UmKA 1 (RS40S)
1 57172U 23091G 24226.86209720 .00012886 00000-0 82733-3 0 9998
2 57172 97.6077 278.3435 0014744 285.2973 74.6625 15.08505737 62186
CubeBel-2 (EU11S)
1 57175U 23091K 24226.84776036 .00017476 00000-0 10908-2 0 9992
2 57175 97.6071 278.3502 0013355 297.6629 62.3244 15.09486500 62188
VERONIKA
1 58261U 23174F 24226.83831986 .00039304 00000-0 16117-2 0 9998
2 58261 97.4564 301.1827 0011450 45.8028 314.4148 15.24084498 42487
KAFASAT
1 58317U 23174BP 24226.84775022 .00053368 00000-0 19292-2 0 9992
2 58317 97.4508 302.0384 0009538 20.7797 339.3828 15.28222389 42550
ENSO
1 58470U 23185J 24226.83670480 .00033740 00000-0 13158-2 0 9992
2 58470 97.4220 293.0264 0012856 80.1350 280.1339 15.25786585 38925
EIRSAT-1
1 58472U 23185L 24226.84973033 .00039551 00000-0 15013-2 0 9993
2 58472 97.4215 293.1369 0012295 81.1102 279.1528 15.26656166 38932
SO-121
1 58567U 23174CY 24228.63420580 .00130189 00000-0 33401-2 0 9999
2 58567 97.4483 304.8535 0007866 10.6386 349.5024 15.38797941 42891
SONATE-2
1 59112U 24043Q 24228.31114958 .00022422 00000-0 10270-2 0 9995
2 59112 97.4834 351.5932 0015212 88.9441 271.3537 15.20392701 24787
MESAT1
1 60209U 24125G 24228.81672023 .00022420 00000-0 10189-2 0 9999
2 60209 97.3185 80.4261 0027678 114.3040 246.1091 15.20414028 6473
GRBBeta
1 60237U 24128C 24228.73340456 .00009165 00000-0 80086-3 0 9991
2 60237 61.9951 34.0950 0012577 312.6576 47.3451 14.97295550 5516
ROBUSTA-3A
1 60243U 24128J 24228.62688113 .00014172 00000-0 12583-2 0 9991
2 60243 61.9926 34.6679 0013474 286.1938 73.7667 14.96339881 5509
CatSat
1 60246U 24125J 24228.83435587 .00015622 00000-0 70243-3 0 9998
2 60246 97.3009 81.7198 0053730 68.3458 292.3488 15.19881823 4594
/EX
1
0
The following satellites have been removed from this week's AMSAT TLE distribution:
KASHIWA NORAD Cat ID 59508 Decayed from orbit on or about 10 August 2024
SPROUT NORAD Cat ID 39770 Decayed from orbit on or about 11 August 2024
Joe Fitzgerald KM1P
AMSAT Orbital Elements Manager
1
0
SB KEPS @ AMSAT $ORB24222.1
2Line Orbital Elements 24222.AMSAT
QST de W1STR
AMSAT Orbital Elements for Amateur Satellites in TLE Format
>From Orbital Analysis Office
New England Sci-Tech STEM Education Center
Natick, MA August 09, 2024
To all radio amateurs
These element sets describe the orbits of various satellites
in use by the amateur radio community. For details see:
www.amsat.org/keplerian-elements-formats/
A daily update of element sets is available at:
www.amsat.org/tle/daily-bulletin.txt
or without bulletin text:
www.amsat.org/tle/dailytle.txt
AO-07
1 07530U 74089B 24221.89456543 -.00000038 00000-0 54723-4 0 9995
2 07530 101.9812 217.0408 0012179 345.7544 74.4105 12.53677692275882
UO-11
1 14781U 84021B 24221.85065217 .00003924 00000-0 44382-3 0 9993
2 14781 97.7088 189.5611 0006331 261.1481 98.9019 14.87010406177315
AO-27
1 22825U 93061C 24221.71610892 .00000382 00000-0 16404-3 0 9994
2 22825 98.7849 275.0306 0007322 287.4317 72.6064 14.30538388610392
FO-29
1 24278U 96046B 24221.76438628 .00000098 00000-0 13315-3 0 9996
2 24278 98.5793 149.5242 0351010 52.1727 311.0640 13.53196800381796
NOAA-15
1 25338U 98030A 24221.83816819 .00000562 00000-0 25011-3 0 9991
2 25338 98.5668 247.8617 0010664 164.6667 195.4838 14.26652187364949
GO-32
1 25397U 98043D 24221.86266433 .00000324 00000-0 16080-3 0 9996
2 25397 98.9258 189.3834 0001846 43.8290 316.3035 14.24083658355139
ISS
1 25544U 98067A 24221.81537062 .00022031 00000-0 39570-3 0 9998
2 25544 51.6391 54.6103 0005816 179.0094 181.0908 15.49787013466712
